EDT,Max TemperatureF,Mean TemperatureF,Min TemperatureF,Max Dew PointF,MeanDew PointF,Min DewpointF,Max Humidity, Mean Humidity, Min Humidity, Max Sea Level PressureIn, Mean Sea Level PressureIn, Min Sea Level PressureIn, Max VisibilityMiles, Mean VisibilityMiles, Min VisibilityMiles, Max Wind SpeedMPH, Mean Wind SpeedMPH, Max Gust SpeedMPH,PrecipitationIn, CloudCover, Events, WindDirDegrees
2013-5-1,76,66,56,49,44,31,77,50,22,30.32,30.26,30.18,10,10,10,16,9,22,0.00,0,,113
2013-5-2,80,67,54,44,36,31,51,36,20,30.34,30.28,30.20,10,10,10,15,7,21,0.00,0,,99
2013-5-3,75,64,53,43,38,31,59,42,25,30.25,30.21,30.16,10,10,10,25,10,32,0.00,0,,121
2013-5-4,72,61,49,40,35,25,51,38,25,30.20,30.15,30.09,10,10,10,17,9,25,0.00,0,,109
2013-5-5,73,63,52,40,30,20,59,37,14,30.15,30.08,30.01,10,10,10,20,11,29,0.00,0,,108
2013-5-6,70,61,51,52,47,37,75,61,47,30.07,30.04,30.00,10,10,10,22,9,30,0.01,4,Rain,89
2013-5-7,64,60,56,57,54,51,87,80,72,30.01,29.97,29.94,10,10,7,15,6,21,0.21,8,Rain,37
2013-5-8,71,62,52,54,50,46,93,69,44,29.99,29.94,29.90,10,9,1,8,3,12,0.27,6,Rain,45
2013-5-9,78,67,55,57,53,48,93,65,36,30.04,30.00,29.94,10,10,10,14,3,21,0.01,5,,203
2013-5-10,78,68,57,60,57,53,90,70,50,30.03,29.93,29.85,10,8,1,20,4,33,0.39,6,Rain,197
2013-5-11,65,60,54,61,57,46,97,82,67,29.87,29.83,29.81,10,8,0,13,6,21,0.57,8,Fog-Rain,222
2013-5-12,55,50,44,48,33,24,77,55,32,30.10,29.97,29.87,10,10,4,17,7,28,0.02,7,Rain,277
2013-5-13,54,45,36,37,29,22,92,61,30,30.21,30.14,30.09,10,10,7,16,4,26,T,4,,253
2013-5-14,64,48,32,41,34,29,89,60,31,30.22,30.10,29.93,10,10,8,12,4,17,0.01,4,,174
2013-5-15,88,74,59,57,52,40,63,49,34,29.90,29.84,29.75,10,10,10,18,9,28,0.01,2,Rain,215
2013-5-16,76,69,61,61,59,51,93,68,43,30.01,29.92,29.81,10,8,2,13,6,17,0.47,6,Rain,201
2013-5-17,83,72,60,61,57,45,97,62,26,30.14,30.08,30.02,10,8,0,9,2,13,0.00,4,Fog,210
2013-5-18,83,71,59,63,58,51,87,66,45,30.12,30.09,30.04,10,8,1,14,4,21,1.09,4,Rain-Thunderstorm,91
2013-5-19,80,72,63,67,61,57,87,71,54,30.11,30.05,29.99,10,10,10,17,5,24,0.07,6,Rain,121
2013-5-20,85,74,62,66,62,59,90,71,51,30.08,30.02,29.94,10,10,10,10,4,14,0.00,3,,194
2013-5-21,85,74,63,67,65,63,93,72,51,30.00,29.94,29.86,10,10,4,13,5,18,0.00,1,,202
2013-5-22,84,74,63,65,61,57,93,72,50,29.94,29.88,29.83,10,9,2,17,6,29,0.28,3,Rain-Thunderstorm,193
2013-5-23,78,66,54,63,60,57,93,74,54,29.91,29.87,29.81,10,9,2,22,6,30,0.35,6,Rain,215
2013-5-24,54,47,39,57,40,30,89,70,50,30.32,30.13,29.89,10,9,2,14,7,24,0.10,8,Rain,319
2013-5-25,62,47,32,36,34,31,100,68,36,30.36,30.30,30.24,10,10,5,13,4,18,0.00,2,,291
2013-5-26,67,52,36,42,36,32,100,64,28,30.32,30.28,30.24,10,10,10,10,2,15,0.00,0,,310
2013-5-27,64,53,41,49,45,40,96,76,55,30.29,30.24,30.12,10,10,10,10,2,14,T,4,Rain,97
2013-5-28,81,72,63,60,57,49,78,62,45,30.12,30.07,30.02,10,10,9,14,6,22,0.01,4,,197
2013-5-29,85,76,67,61,58,56,70,55,40,30.15,30.11,30.05,10,10,10,15,6,26,0.00,1,,204
2013-5-30,88,75,61,65,61,59,93,68,42,30.23,30.16,30.09,10,10,9,9,2,14,0.00,0,,204
2013-5-31,88,77,65,63,61,57,87,64,40,30.15,30.10,30.01,10,10,10,13,4,20,T,0,,192